Regional Weather Roundup
Issued by NWS State College, PA

Home | Current Version | Previous Version | Text Only | Print | Product List | Glossary On
Versions: 1 2 3 4 5 6 7 8 9 10 11 12 13 14 15 16 17 18 19 20 21 22 23 24 25 26 27 28 29 30 31 32 33 34 35 36 37 38 39 40 41 42 43 44 45 46 47 48 49 50
000
ASUS41 KCTP 051203
RWRCTP

REGIONAL WEATHER ROUNDUP
NATIONAL WEATHER SERVICE STATE COLLEGE PA
800 AM EDT TUE MAY 05 2015

Note: "fair" indicates few or no clouds below 12,000 feet with no
significant weather and/or obstructions to visibility.

* = STATION THAT DOES NOT REPORT PRECIPITATION /E.G. RAIN...SNOW...ETC/
    THUNDER OR FOG.

PAZ002>004-007>009-013>016-020>023-029>032-051300-
WESTERN PENNSYLVANIA

CITY           SKY/WX    TMP DP  RH WIND       PRES   REMARKS
ERIE           PTSUNNY   56  55  97 CALM      30.27R FOG
MEADVILLE      FOG       58  56  93 CALM      30.28R VSB 1
FRANKLIN*      CLOUDY    57  54  88 SW3       30.31R
NEW CASTLE     LGT RAIN  57  56  97 CALM      30.30R VSB 3/4
BEAVER COUNTY  LGT RAIN  59  57  94 W3        30.29  VSB 1
BUTLER*        CLOUDY    57  55  94 CALM      30.31R
PITTSBURGH INT CLOUDY    61  59  93 CALM      30.28R
PITTSBURGH     PTSUNNY   63  55  75 W6        30.27R
INDIANA*       CLOUDY    63  59  88 CALM      30.32R
LATROBE        NOT AVBL
WASHINGTON CO* PTSUNNY   61  59  94 CALM      30.31R
$$

PAZ004>006-010>012-017>019-024>028-033>037-041-042-045-046-049>053-051300-
CENTRAL PENNSYLVANIA

CITY           SKY/WX    TMP DP  RH WIND       PRES   REMARKS
BRADFORD       PTSUNNY   59  55  87 CALM      30.29R FOG
DUBOIS         MOSUNNY   60  58  92 CALM      30.28R FOG
CLEARFIELD     MOSUNNY   60  56  86 CALM      30.29R
JOHNSTOWN      PTSUNNY   62  54  74 SW5       30.29R
ALTOONA        PTSUNNY   67  56  67 CALM      30.28R
STATE COLLEGE  SUNNY     63  57  82 CALM      30.28R
WILLIAMSPORT   PTSUNNY   68  55  63 CALM      30.24R
SELINSGROVE    PTSUNNY   70  57  63 NW6       30.25R
FT INDIANTOWN  CLOUDY    62  55  77 VRB2      30.23R
CAPITAL CITY   CLOUDY    65  55  70 CALM      30.24R
HARRISBURG     CLOUDY    64  57  78 CALM      30.23R
YORK           CLOUDY    60  56  86 CALM      30.24R
$$

PAZ038>040-043-044-047-048-054-055-060>062-067>071-051300-
EASTERN PENNSYLVANIA

CITY           SKY/WX    TMP DP  RH WIND       PRES   REMARKS
SCRANTON       MOSUNNY   66  55  67 VRB7      30.24R
MOUNT POCONO   MOSUNNY   64  53  67 NW14G20   30.24R
ALLENTOWN      PTSUNNY   64  53  67 CALM      30.22R
QUAKERTOWN*    MOSUNNY   64  54  68 CALM      30.23R
READING        CLOUDY    64  52  64 CALM      30.22R
LANCASTER      CLOUDY    61  54  77 CALM      30.23R
COATESVILLE    PTSUNNY   64  55  72 W5        30.24R
POTTSTOWN      PTSUNNY   65  54  67 CALM      30.23R
BLUE BELL      MOSUNNY   68  55  64 W3        30.21R
DOYLESTOWN     MOSUNNY   65  53  65 CALM      30.21R
WILLOW GROVE   NOT AVBL
NORTH PHILA    SUNNY     69  52  54 SW7       30.23R
PHILADELPHIA   PTSUNNY   66  54  65 W10       30.23R
$$


USA.gov is the U.S. government's official web portal to all federal, state and local government web resources and services.